Location: Eppenbrunn
(49.1158°N, 7.5601°E)
Time: 17:49:46
(UTC+00:00)

STARLINK-1233 - Pass Details

Date: 09 April 2020
Orbit: 549 x 551 km, 53.0° (Epoch: 26 May)

Event Time Altitude Azimuth Distance (km) Brightness Sun altitude
Rises 19:46:46 0° 292° (WNW) 2,736 9.0 -14.9°
Reaches altitude 10° 19:49:12 10° 281° (WNW) 1,838 7.4 -15.2°
Maximum altitude 19:52:50 29° 221° (SW) 1,024 5.0 -15.7°
Enters shadow 19:55:04 18° 173° (S) 1,388 5.3 -16.0°
